STARLINK-11274 [DTC] (61001 NORAD) Tracking and Keplerian Element Data

This shows tracking and keplerian element data for the satellite.

Feedback or suggestion? Click here.




ElementValue
Catalog61001
NameSTARLINK-11274 [DTC]
Epoch Orbit609
Epoch Day286.91668981
Epoch Year2024
RAAN288.9499
Inclination53.1585
Eccentricity0.0001235
Argument of Perigee109.7713
Mean Anonmoly85.8328
Mean Motion15.69684021
Decay Rate0.00047438
L11 61001U 24158M 24286.91668981 .00047438 00000+0 39460-3 0 9998
L22 61001 53.1585 288.9499 0001235 109.7713 85.8328 15.69684021 6096



Live tracking and technical data element details for STARLINK-11274 [DTC] (NORAD 61001). STARLINK-11274 [DTC] can be tracked NOW for your location showing map with azimuth and elevation plus other details from your city location.







IsCatalogInMostPopularTable: catalog: 61001, numindb: 7
Update: records affected: 1



GetName: 61001 STARLINK-11274 [DTC]

Hit Count: updated at: Tue, 03 Dec 2024 02:56:35 GMT